Flag for Poland Weather past 2 weeks in Poznan, Poland

Now
63 °F

Passing clouds.


Feels Like: 63 °F
Forecast: 51 / 71 °F
Wind: 9 mph from Northwest

Location: Poznan Airport

Current Time: Aug 27, 2014 at 11:29:56 AM

Latest Report: Aug 27, 2014 at 11:00 AM


Visibility: N/A

Pressure: 29.86 "Hg

Humidity: 68%

Dew point: 52 °F

Location of PoznanLocation

Historic Weather in Poznan — Graph

°F

Poznan temperature yesterday

Maximum temperature yesterday: 63 °F (at 5:30 PM)
Minimum temperature yesterday: 50 °F (at 5:00 AM)
Average temperature yesterday: 55 °F

Past Weeks' High & Low Weather Summary

 TemperatureHumidityPressure
High77 °F (Aug 13, 2:00 PM)100% (Aug 14, 5:00 AM)30.01 "Hg (Aug 14, 5:00 AM)
Low43 °F (Aug 27, 4:30 AM)33% (Aug 22, 2:00 PM)29.56 "Hg (Aug 14, 3:00 AM)
Average61 °F69%29.86 "Hg
* Reported Aug 12 10:00 AM — Aug 27 10:30 AM, Poznan, Weather by CustomWeather, © 2014

Note: Actual official high and low records may vary slightly from our data, if they occured in-between our weather recording intervals... More about our weather records

Advertising

Poznan weather history for previous 24 hours

 ConditionsComfort  
Time TempWeatherWind HumidityBarometerVisibility
10:30 AM
Aug 27
61 °FPassing clouds.9 mph68%29.86 "HgN/A
10:00 AM61 °FPassing clouds.8 mph72%29.86 "HgN/A
9:30 AM59 °FPassing clouds.7 mph77%29.86 "HgN/A
9:00 AM57 °FPassing clouds.7 mph77%29.86 "HgN/A
8:30 AM55 °FSunny.3 mph82%29.86 "Hg10 mi
8:00 AM52 °FClear.3 mph94%29.83 "Hg5 mi
7:30 AM50 °FClear.2 mph94%29.83 "Hg4 mi
7:00 AM46 °FFog.1 mph93%29.83 "Hg4 mi
6:30 AM43 °FFog.2 mph93%29.80 "Hg1 mi
6:00 AM43 °FFog.1 mph93%29.80 "Hg2 mi
5:30 AM45 °FFog.1 mph93%29.80 "HgN/A
5:00 AM43 °FFog.2 mph93%29.80 "HgN/A
4:30 AM43 °FFog.2 mph93%29.80 "HgN/A
4:00 AM45 °FFog.2 mph93%29.80 "HgN/A
3:30 AM46 °FFog.1 mph93%29.80 "Hg4 mi
3:00 AM46 °FFog.1 mph93%29.80 "Hg5 mi
2:30 AM48 °FFog.2 mph94%29.80 "Hg5 mi
2:00 AM48 °FFog.1 mph94%29.80 "Hg4 mi
1:30 AM48 °FFog.1 mph94%29.80 "HgN/A
1:00 AM48 °FFog.1 mph94%29.80 "HgN/A
12:30 AM50 °FFog.1 mph94%29.80 "HgN/A
12:00 AM50 °FClear.2 mph94%29.77 "Hg10 mi
11:30 PM
Aug 26
52 °FClear.2 mph94%29.77 "Hg10 mi
11:00 PM52 °FClear.1 mph94%29.77 "Hg10 mi
10:30 PM52 °FClear.1 mph94%29.77 "Hg10 mi
10:00 PM54 °FClear.2 mph88%29.77 "Hg10 mi
9:30 PM54 °FClear.5 mph88%29.77 "Hg10 mi
9:00 PM55 °FClear.3 mph82%29.77 "Hg10 mi
8:30 PM55 °FSunny.3 mph82%29.77 "Hg10 mi
8:00 PM57 °FPassing clouds.5 mph77%29.77 "HgN/A
7:30 PM59 °FPassing clouds.7 mph72%29.77 "HgN/A
7:00 PM59 °FPassing clouds.7 mph72%29.74 "HgN/A
6:30 PM61 °FPassing clouds.7 mph63%29.74 "HgN/A
6:00 PM61 °FPassing clouds.7 mph63%29.74 "HgN/A
5:30 PM63 °FScattered clouds.6 mph59%29.74 "HgN/A
5:00 PM61 °FScattered clouds.6 mph63%29.74 "HgN/A
4:30 PM61 °FScattered clouds.5 mph63%29.74 "HgN/A
4:00 PM61 °FScattered clouds.2 mph63%29.74 "HgN/A
3:30 PM61 °FScattered clouds.5 mph63%29.74 "HgN/A
3:00 PM59 °FPartly sunny.3 mph72%29.74 "HgN/A
2:30 PM59 °FPartly sunny.3 mph72%29.74 "HgN/A
2:00 PM57 °FPartly sunny.2 mph72%29.74 "HgN/A
1:30 PM57 °FPartly sunny.5 mph77%29.74 "HgN/A
1:00 PM57 °FPartly sunny.5 mph82%29.74 "HgN/A
12:30 PM57 °FPartly sunny.3 mph77%29.77 "HgN/A
12:00 PM57 °FPartly sunny.2 mph77%29.77 "HgN/A
11:30 AM57 °FPartly sunny.1 mph77%29.77 "HgN/A
11:00 AM55 °FPartly sunny.1 mph82%29.77 "HgN/A
Weather by CustomWeather, © 2014

See weather overviewHow to use our weather pages